PGT1911 LCEN-LTFJ

Flight info

Callsign PGT1911
Flight time 1h 11m
Altitude 38000
Route GIRNE DCT DOREN A28 UMDOT UT38 VAPEK UL610 EKSEN L610 ETAMP
Aircraft A21N/M-SDE3FGHIRWY/LB1

Departure

Time 2026-04-27 17:35
Airport Ercan International Airport (LCEN)

Arrival

Time 2026-04-27 18:46
Airport Istanbul Sabiha Gökçen International Airport (LTFJ)
Time Latitude Longitude Altitude Speed Heading
2026-04-27 17:12 35.14999 33.50264 407 ft 0 kts 202°
2026-04-27 17:24 35.15001 33.50264 407 ft 1 kts 202°
2026-04-27 17:24 35.15014 33.50271 407 ft 2 kts 201°
2026-04-27 17:25 35.15023 33.50275 407 ft 1 kts 202°
2026-04-27 17:25 35.15037 33.50280 407 ft 2 kts 180°
2026-04-27 17:25 35.15052 33.50279 407 ft 2 kts 163°
2026-04-27 17:25 35.15066 33.50271 407 ft 2 kts 145°
2026-04-27 17:26 35.15077 33.50259 407 ft 2 kts 127°
2026-04-27 17:26 35.15083 33.50248 407 ft 0 kts 114°
2026-04-27 17:26 35.15086 33.50240 407 ft 0 kts 112°
2026-04-27 17:28 35.15085 33.50241 407 ft 0 kts 112°
2026-04-27 17:29 35.15079 33.50261 407 ft 5 kts 112°
2026-04-27 17:29 35.15058 33.50323 407 ft 9 kts 112°
2026-04-27 17:29 35.15030 33.50406 407 ft 11 kts 111°
2026-04-27 17:29 35.15000 33.50496 407 ft 12 kts 111°
2026-04-27 17:30 35.14968 33.50596 407 ft 12 kts 101°
2026-04-27 17:30 35.15109 33.50699 407 ft 12 kts 43°
2026-04-27 17:30 35.15106 33.50799 407 ft 13 kts 116°
2026-04-27 17:31 35.15068 33.50910 407 ft 16 kts 111°
2026-04-27 17:31 35.15017 33.51066 407 ft 22 kts 112°
2026-04-27 17:31 35.14951 33.51266 407 ft 27 kts 111°
2026-04-27 17:31 35.14876 33.51495 407 ft 29 kts 111°
2026-04-27 17:32 35.14804 33.51718 407 ft 27 kts 112°
2026-04-27 17:32 35.14666 33.52138 407 ft 25 kts 111°
2026-04-27 17:32 35.14601 33.52335 407 ft 24 kts 112°
2026-04-27 17:33 35.14539 33.52526 407 ft 24 kts 111°
2026-04-27 17:33 35.14487 33.52692 406 ft 7 kts 92°
2026-04-27 17:33 35.14497 33.52759 406 ft 8 kts 94°
2026-04-27 17:33 35.14463 33.52792 406 ft 6 kts 230°
2026-04-27 17:34 35.14473 33.52726 406 ft 8 kts 293°
2026-04-27 17:34 35.14572 33.52428 407 ft 79 kts 291°
2026-04-27 17:34 35.14869 33.51524 409 ft 147 kts 291°
2026-04-27 17:34 35.15282 33.50303 929 ft 159 kts 291°
2026-04-27 17:35 35.15632 33.49053 1748 ft 159 kts 284°
2026-04-27 17:35 35.15893 33.47753 2460 ft 161 kts 291°
2026-04-27 17:35 35.16563 33.46637 2980 ft 171 kts 320°
2026-04-27 17:35 35.17521 33.45651 3428 ft 191 kts 321°
2026-04-27 17:36 35.18570 33.44540 3939 ft 210 kts 320°
2026-04-27 17:36 35.19693 33.43285 4424 ft 233 kts 318°
2026-04-27 17:36 35.20916 33.41866 5041 ft 251 kts 318°
2026-04-27 17:36 35.22201 33.40344 5761 ft 265 kts 318°
2026-04-27 17:37 35.23515 33.38771 6692 ft 269 kts 318°
2026-04-27 17:37 35.24855 33.37165 7624 ft 273 kts 318°
2026-04-27 17:37 35.26243 33.35595 8503 ft 276 kts 327°
2026-04-27 17:37 35.27984 33.34649 9359 ft 276 kts 351°
2026-04-27 17:38 35.29878 33.34611 10223 ft 277 kts 11°
2026-04-27 17:38 35.31684 33.35455 10833 ft 289 kts 32°
2026-04-27 17:38 35.33240 33.37149 11308 ft 307 kts 45°
2026-04-27 17:38 35.34952 33.38792 11751 ft 323 kts 25°
2026-04-27 17:39 35.37149 33.39291 12426 ft 333 kts 356°
2026-04-27 17:39 35.39402 33.38588 13273 ft 337 kts 342°
2026-04-27 17:39 35.41671 33.37784 14057 ft 341 kts 348°
2026-04-27 17:39 35.43991 33.37269 14818 ft 345 kts 353°
2026-04-27 17:40 35.46397 33.36954 15580 ft 349 kts 356°
2026-04-27 17:40 35.48803 33.36766 16300 ft 353 kts 358°
2026-04-27 17:40 35.51269 33.36644 17029 ft 357 kts 358°
2026-04-27 17:40 35.53759 33.36553 17725 ft 361 kts 359°
2026-04-27 17:41 35.56278 33.36476 18426 ft 365 kts 359°
2026-04-27 17:41 35.58818 33.36401 19132 ft 368 kts 359°
2026-04-27 17:41 35.61401 33.36302 19806 ft 372 kts 357°
2026-04-27 17:41 35.63987 33.36003 20454 ft 376 kts 353°
2026-04-27 17:42 35.66567 33.35491 21081 ft 380 kts 349°
2026-04-27 17:42 35.69163 33.34818 21719 ft 384 kts 348°
2026-04-27 17:42 35.71777 33.34108 22330 ft 387 kts 348°
2026-04-27 17:42 35.74430 33.33381 22948 ft 390 kts 348°
2026-04-27 17:43 35.77080 33.32661 23528 ft 394 kts 348°
2026-04-27 17:43 35.79754 33.31937 24066 ft 397 kts 348°
2026-04-27 17:43 35.82487 33.31198 24616 ft 401 kts 348°
2026-04-27 17:43 35.85195 33.30465 25146 ft 403 kts 347°
2026-04-27 17:44 35.87972 33.29715 25633 ft 407 kts 347°
2026-04-27 17:44 35.90753 33.29017 26120 ft 409 kts 350°
2026-04-27 17:44 35.93564 33.28576 26570 ft 412 kts 355°
2026-04-27 17:44 35.96423 33.28422 27016 ft 415 kts 359°
2026-04-27 17:45 35.99331 33.28493 27452 ft 418 kts
2026-04-27 17:45 36.02263 33.28622 27874 ft 421 kts
2026-04-27 17:45 36.05202 33.28666 28287 ft 423 kts 359°
2026-04-27 17:45 36.08130 33.28630 28686 ft 426 kts 359°
2026-04-27 17:46 36.11117 33.28573 29074 ft 429 kts 358°
2026-04-27 17:46 36.14127 33.28512 29434 ft 432 kts 358°
2026-04-27 17:46 36.17108 33.28475 29791 ft 434 kts 359°
2026-04-27 17:46 36.20177 33.28501 30162 ft 437 kts 360°
2026-04-27 17:47 36.23226 33.28543 30504 ft 439 kts 360°
2026-04-27 17:47 36.25264 33.28570 30725 ft 440 kts 360°
2026-04-27 17:47 36.29352 33.28550 31287 ft 438 kts 355°
2026-04-27 17:47 36.32341 33.28045 31732 ft 436 kts 347°
2026-04-27 17:48 36.35251 33.27013 32198 ft 433 kts 339°
2026-04-27 17:48 36.38005 33.25486 32618 ft 430 kts 331°
2026-04-27 17:48 36.40516 33.23534 33013 ft 428 kts 323°
2026-04-27 17:48 36.42805 33.21148 33383 ft 427 kts 316°
2026-04-27 17:49 36.44774 33.18449 33734 ft 426 kts 309°
2026-04-27 17:49 36.46622 33.15559 34109 ft 424 kts 308°
2026-04-27 17:49 36.48417 33.12687 34436 ft 422 kts 308°
2026-04-27 17:49 36.50206 33.09818 34751 ft 421 kts 308°
2026-04-27 17:50 36.52006 33.06934 35035 ft 420 kts 308°
2026-04-27 17:50 36.55578 33.01225 35566 ft 418 kts 308°
2026-04-27 17:50 36.57374 32.98356 35824 ft 418 kts 307°
2026-04-27 17:51 36.59151 32.95517 36089 ft 417 kts 307°
2026-04-27 17:51 36.60945 32.92649 36359 ft 417 kts 307°
2026-04-27 17:51 36.62718 32.89813 36611 ft 417 kts 307°
2026-04-27 17:51 36.64508 32.86948 36786 ft 418 kts 307°
2026-04-27 17:52 36.66283 32.84105 36965 ft 419 kts 307°
2026-04-27 17:52 36.68066 32.81247 37154 ft 420 kts 307°
2026-04-27 17:52 36.69862 32.78366 37324 ft 421 kts 307°
2026-04-27 17:52 36.71664 32.75470 37490 ft 422 kts 307°
2026-04-27 17:53 36.73458 32.72586 37644 ft 423 kts 307°
2026-04-27 17:53 36.75262 32.69683 37806 ft 423 kts 307°
2026-04-27 17:53 36.77065 32.66780 37983 ft 424 kts 307°
2026-04-27 17:53 36.78875 32.63862 38112 ft 425 kts 307°
2026-04-27 17:54 36.82480 32.58046 38141 ft 426 kts 307°
2026-04-27 17:54 36.86100 32.52191 38131 ft 427 kts 307°
2026-04-27 17:55 36.89747 32.46288 38135 ft 428 kts 307°
2026-04-27 17:55 36.93373 32.40419 38142 ft 428 kts 307°
2026-04-27 17:56 36.97007 32.34523 38159 ft 429 kts 306°
2026-04-27 17:56 37.00649 32.28602 38159 ft 428 kts 306°
2026-04-27 17:57 37.04264 32.22713 38169 ft 428 kts 306°
2026-04-27 17:57 37.07894 32.16791 38171 ft 428 kts 306°
2026-04-27 17:58 37.11525 32.10858 38169 ft 429 kts 306°
2026-04-27 17:58 37.15156 32.04912 38165 ft 430 kts 306°
2026-04-27 17:59 37.18782 31.98963 38168 ft 430 kts 306°
2026-04-27 17:59 37.22395 31.93025 38182 ft 429 kts 306°
2026-04-27 18:00 37.26003 31.87085 38173 ft 427 kts 306°
2026-04-27 18:00 37.29614 31.81130 38177 ft 427 kts 306°
2026-04-27 18:01 37.33181 31.75237 38162 ft 427 kts 306°
2026-04-27 18:01 37.36740 31.69255 38162 ft 427 kts 304°
2026-04-27 18:02 37.40022 31.63027 38152 ft 426 kts 302°
2026-04-27 18:02 37.43244 31.56797 38157 ft 426 kts 302°
2026-04-27 18:03 37.46465 31.50562 38166 ft 425 kts 302°
2026-04-27 18:03 37.49678 31.44334 38154 ft 425 kts 302°
2026-04-27 18:04 37.52899 31.38078 38148 ft 425 kts 302°
2026-04-27 18:04 37.56115 31.31822 38160 ft 424 kts 302°
2026-04-27 18:05 37.59316 31.25583 38154 ft 424 kts 302°
2026-04-27 18:05 37.62504 31.19359 38163 ft 424 kts 302°
2026-04-27 18:06 37.65681 31.13144 38151 ft 423 kts 302°
2026-04-27 18:06 37.68868 31.06897 38146 ft 423 kts 302°
2026-04-27 18:07 37.72047 31.00655 38129 ft 423 kts 302°
2026-04-27 18:07 37.75206 30.94438 38143 ft 422 kts 302°
2026-04-27 18:08 37.78375 30.88190 38150 ft 422 kts 302°
2026-04-27 18:08 37.81517 30.81983 38152 ft 421 kts 302°
2026-04-27 18:09 37.84702 30.75773 38153 ft 422 kts 305°
2026-04-27 18:09 37.88529 30.70147 38151 ft 424 kts 315°
2026-04-27 18:10 37.93133 30.65478 38143 ft 426 kts 325°
2026-04-27 18:10 37.98346 30.61940 38149 ft 428 kts 334°
2026-04-27 18:11 38.03829 30.58931 38140 ft 427 kts 335°
2026-04-27 18:11 38.09286 30.55963 38137 ft 427 kts 335°
2026-04-27 18:12 38.14751 30.52974 38139 ft 427 kts 334°
2026-04-27 18:12 38.20175 30.49998 38135 ft 427 kts 334°
2026-04-27 18:13 38.25660 30.46982 38130 ft 428 kts 334°
2026-04-27 18:13 38.31115 30.43975 38138 ft 428 kts 334°
2026-04-27 18:14 38.36574 30.40961 38130 ft 427 kts 334°
2026-04-27 18:14 38.42022 30.37948 38132 ft 428 kts 334°
2026-04-27 18:15 38.47487 30.34921 38133 ft 428 kts 334°
2026-04-27 18:15 38.52953 30.31887 38128 ft 428 kts 334°
2026-04-27 18:16 38.58391 30.28871 38127 ft 428 kts 334°
2026-04-27 18:16 38.63873 30.25827 38128 ft 429 kts 334°
2026-04-27 18:17 38.69312 30.22801 38097 ft 429 kts 334°
2026-04-27 18:17 38.72042 30.21280 37799 ft 428 kts 334°
2026-04-27 18:17 38.74789 30.19749 37498 ft 428 kts 334°
2026-04-27 18:18 38.77515 30.18227 37203 ft 428 kts 334°
2026-04-27 18:18 38.80238 30.16705 36907 ft 428 kts 334°
2026-04-27 18:18 38.82985 30.15169 36614 ft 429 kts 334°
2026-04-27 18:18 38.85718 30.13640 36341 ft 430 kts 334°
2026-04-27 18:19 38.88435 30.12118 36125 ft 430 kts 334°
2026-04-27 18:19 38.91207 30.10564 35906 ft 431 kts 334°
2026-04-27 18:19 38.93948 30.09023 35697 ft 432 kts 334°
2026-04-27 18:19 38.96685 30.07481 35488 ft 433 kts 334°
2026-04-27 18:20 38.99450 30.05920 35266 ft 433 kts 334°
2026-04-27 18:20 39.02227 30.04352 35043 ft 434 kts 334°
2026-04-27 18:20 39.04968 30.02805 34742 ft 434 kts 334°
2026-04-27 18:20 39.07726 30.01251 34246 ft 434 kts 334°
2026-04-27 18:21 39.10504 29.99688 33593 ft 435 kts 335°
2026-04-27 18:21 39.13303 29.98112 32879 ft 436 kts 335°
2026-04-27 18:21 39.16021 29.96579 32171 ft 436 kts 335°
2026-04-27 18:21 39.18854 29.94979 31399 ft 438 kts 335°
2026-04-27 18:22 39.21601 29.93426 30820 ft 434 kts 335°
2026-04-27 18:22 39.24358 29.91868 30321 ft 429 kts 335°
2026-04-27 18:22 39.27081 29.90327 29815 ft 425 kts 335°
2026-04-27 18:22 39.29752 29.88812 29321 ft 420 kts 335°
2026-04-27 18:23 39.32407 29.87303 28827 ft 416 kts 335°
2026-04-27 18:23 39.35038 29.85809 28344 ft 412 kts 335°
2026-04-27 18:23 39.37670 29.84314 27856 ft 408 kts 334°
2026-04-27 18:23 39.40253 29.82824 27429 ft 406 kts 334°
2026-04-27 18:24 39.42830 29.81323 27043 ft 407 kts 334°
2026-04-27 18:24 39.45393 29.79828 26667 ft 406 kts 334°
2026-04-27 18:24 39.47964 29.78326 26293 ft 404 kts 334°
2026-04-27 18:24 39.50501 29.76844 25928 ft 402 kts 334°
2026-04-27 18:25 39.53048 29.75357 25567 ft 401 kts 334°
2026-04-27 18:25 39.55576 29.73879 25209 ft 399 kts 334°
2026-04-27 18:25 39.58095 29.72407 24853 ft 397 kts 334°
2026-04-27 18:25 39.60600 29.70942 24494 ft 395 kts 334°
2026-04-27 18:26 39.63122 29.69465 24139 ft 394 kts 334°
2026-04-27 18:26 39.65606 29.68009 23788 ft 392 kts 334°
2026-04-27 18:26 39.68065 29.66568 23439 ft 389 kts 334°
2026-04-27 18:26 39.70554 29.65108 23087 ft 387 kts 334°
2026-04-27 18:27 39.72999 29.63672 22735 ft 385 kts 334°
2026-04-27 18:27 39.75420 29.62249 22396 ft 383 kts 334°
2026-04-27 18:27 39.77839 29.60825 22046 ft 381 kts 334°
2026-04-27 18:27 39.80236 29.59414 21694 ft 379 kts 335°
2026-04-27 18:28 39.82653 29.57990 21345 ft 377 kts 335°
2026-04-27 18:28 39.85013 29.56598 21008 ft 374 kts 335°
2026-04-27 18:28 39.87387 29.55197 20656 ft 372 kts 335°
2026-04-27 18:28 39.89725 29.53817 20302 ft 370 kts 335°
2026-04-27 18:29 39.92068 29.52433 19901 ft 368 kts 335°
2026-04-27 18:29 39.94376 29.51068 19479 ft 365 kts 335°
2026-04-27 18:29 39.96668 29.49712 19051 ft 362 kts 335°
2026-04-27 18:29 39.98970 29.48348 18615 ft 359 kts 335°
2026-04-27 18:30 40.01216 29.47017 18177 ft 357 kts 335°
2026-04-27 18:30 40.03489 29.45669 17717 ft 355 kts 335°
2026-04-27 18:30 40.05703 29.44354 17278 ft 352 kts 335°
2026-04-27 18:30 40.07909 29.43044 16844 ft 349 kts 335°
2026-04-27 18:31 40.10108 29.41736 16399 ft 347 kts 335°
2026-04-27 18:31 40.12299 29.40433 15966 ft 344 kts 335°
2026-04-27 18:31 40.14487 29.39130 15529 ft 342 kts 335°
2026-04-27 18:31 40.16646 29.37844 15078 ft 340 kts 335°
2026-04-27 18:32 40.18783 29.36571 14626 ft 338 kts 335°
2026-04-27 18:32 40.20898 29.35310 14178 ft 336 kts 335°
2026-04-27 18:32 40.23045 29.34028 13724 ft 334 kts 335°
2026-04-27 18:32 40.25160 29.32765 13282 ft 332 kts 335°
2026-04-27 18:33 40.27236 29.31524 12846 ft 330 kts 335°
2026-04-27 18:33 40.29324 29.30275 12381 ft 329 kts 335°
2026-04-27 18:33 40.31387 29.29040 11937 ft 327 kts 335°
2026-04-27 18:33 40.33456 29.27801 11488 ft 326 kts 335°
2026-04-27 18:34 40.35503 29.26574 11040 ft 324 kts 335°
2026-04-27 18:34 40.37569 29.25335 10588 ft 323 kts 335°
2026-04-27 18:34 40.39592 29.24121 10311 ft 315 kts 335°
2026-04-27 18:34 40.41518 29.22964 10166 ft 302 kts 335°
2026-04-27 18:35 40.43400 29.21833 10020 ft 290 kts 335°
2026-04-27 18:35 40.45201 29.20750 9776 ft 283 kts 335°
2026-04-27 18:35 40.46995 29.19669 9388 ft 282 kts 335°
2026-04-27 18:35 40.48775 29.18596 9007 ft 281 kts 335°
2026-04-27 18:36 40.50545 29.17530 8636 ft 279 kts 335°
2026-04-27 18:36 40.52286 29.16480 8276 ft 277 kts 336°
2026-04-27 18:36 40.54027 29.15430 7914 ft 275 kts 336°
2026-04-27 18:36 40.55772 29.14377 7563 ft 272 kts 336°
2026-04-27 18:37 40.57476 29.13349 7221 ft 270 kts 336°
2026-04-27 18:37 40.59169 29.12327 6884 ft 268 kts 336°
2026-04-27 18:37 40.60850 29.11310 6548 ft 266 kts 336°
2026-04-27 18:37 40.62534 29.10291 6212 ft 264 kts 336°
2026-04-27 18:38 40.64198 29.09283 5883 ft 262 kts 337°
2026-04-27 18:38 40.65831 29.08295 5565 ft 260 kts 337°
2026-04-27 18:38 40.67460 29.07307 5249 ft 258 kts 338°
2026-04-27 18:38 40.69084 29.06323 4928 ft 255 kts 338°
2026-04-27 18:39 40.70695 29.05345 4619 ft 253 kts 338°
2026-04-27 18:39 40.72277 29.04383 4444 ft 245 kts 338°
2026-04-27 18:39 40.73788 29.03465 4367 ft 232 kts 338°
2026-04-27 18:39 40.75217 29.02608 4261 ft 220 kts 342°
2026-04-27 18:40 40.76656 29.02378 4114 ft 204 kts 17°
2026-04-27 18:40 40.77878 29.03257 3901 ft 200 kts 47°
2026-04-27 18:40 40.78659 29.04741 3641 ft 199 kts 58°
2026-04-27 18:40 40.79385 29.06305 3374 ft 198 kts 58°
2026-04-27 18:41 40.80094 29.07806 3197 ft 191 kts 58°
2026-04-27 18:41 40.80754 29.09303 2997 ft 181 kts 61°
2026-04-27 18:41 40.81305 29.10692 2967 ft 162 kts 62°
2026-04-27 18:41 40.81773 29.11933 2934 ft 138 kts 63°
2026-04-27 18:42 40.82177 29.13028 2998 ft 130 kts 63°
2026-04-27 18:42 40.82436 29.13735 3009 ft 126 kts 63°
2026-04-27 18:42 40.82939 29.15112 2842 ft 124 kts 63°
2026-04-27 18:42 40.83311 29.16132 2674 ft 123 kts 63°
2026-04-27 18:43 40.83683 29.17153 2505 ft 122 kts 63°
2026-04-27 18:43 40.84051 29.18160 2342 ft 122 kts 63°
2026-04-27 18:43 40.84421 29.19175 2176 ft 122 kts 63°
2026-04-27 18:43 40.84790 29.20185 2010 ft 121 kts 63°
2026-04-27 18:44 40.85157 29.21188 1849 ft 121 kts 63°
2026-04-27 18:44 40.85518 29.22177 1688 ft 121 kts 63°
2026-04-27 18:44 40.85887 29.23182 1521 ft 120 kts 63°
2026-04-27 18:44 40.86252 29.24178 1356 ft 120 kts 63°
2026-04-27 18:45 40.86615 29.25166 1195 ft 120 kts 63°
2026-04-27 18:45 40.86974 29.26149 1030 ft 119 kts 63°
2026-04-27 18:45 40.87332 29.27149 853 ft 119 kts 63°
2026-04-27 18:45 40.87698 29.28127 705 ft 118 kts 62°
2026-04-27 18:46 40.88052 29.29092 563 ft 118 kts 63°
2026-04-27 18:46 40.88410 29.30062 400 ft 117 kts 62°
2026-04-27 18:46 40.88750 29.30984 322 ft 86 kts 64°
2026-04-27 18:46 40.88914 29.31422 322 ft 40 kts 63°
2026-04-27 18:47 40.89028 29.31735 321 ft 35 kts 63°
2026-04-27 18:47 40.89131 29.32014 321 ft 31 kts 63°
2026-04-27 18:47 40.89199 29.32194 321 ft 19 kts 62°
2026-04-27 18:47 40.89281 29.32336 321 ft 18 kts 45°
2026-04-27 18:48 40.89383 29.32434 321 ft 17 kts 32°
2026-04-27 18:48 40.89455 29.32493 321 ft 9 kts 20°
2026-04-27 18:48 40.89493 29.32451 321 ft 9 kts 265°
2026-04-27 18:48 40.89496 29.32383 321 ft 7 kts 307°
2026-04-27 18:49 40.89544 29.32350 321 ft 8 kts 349°
2026-04-27 18:49 40.89574 29.32363 321 ft 3 kts 25°
2026-04-27 18:49 40.89602 29.32365 321 ft 5 kts 347°
2026-04-27 18:49 40.89640 29.32344 321 ft 7 kts 335°
2026-04-27 18:50 40.89701 29.32306 321 ft 11 kts 335°
2026-04-27 18:50 40.89770 29.32263 321 ft 12 kts 334°
2026-04-27 18:50 40.89851 29.32212 321 ft 13 kts 334°
2026-04-27 18:50 40.89914 29.32172 321 ft 14 kts 334°
2026-04-27 18:51 40.90004 29.32115 321 ft 14 kts 334°
2026-04-27 18:51 40.90088 29.32075 321 ft 11 kts 15°
2026-04-27 18:51 40.90135 29.32158 321 ft 12 kts 64°
2026-04-27 18:51 40.90172 29.32261 321 ft 12 kts 64°
2026-04-27 18:52 40.90213 29.32374 321 ft 15 kts 64°
2026-04-27 18:52 40.90262 29.32511 321 ft 16 kts 64°
2026-04-27 18:52 40.90333 29.32575 321 ft 13 kts 345°
2026-04-27 18:53 40.90525 29.32457 321 ft 17 kts 334°
2026-04-27 18:53 40.90610 29.32360 321 ft 16 kts 306°
2026-04-27 18:53 40.90704 29.32284 321 ft 13 kts 333°
2026-04-27 18:53 40.90762 29.32273 321 ft 6 kts 358°
2026-04-27 18:54 40.90807 29.32250 321 ft 6 kts 334°
2026-04-27 18:54 40.90825 29.32240 321 ft 0 kts 334°